Lake Charles, LA

8:05 AM CST on December 17, 2017 (GMT -0600)
Chennault International

Weather History for KCWF - July, 2013

Change the Weather History Date:

Tuesday, July 30, 2013

  Actual Average Record
Temperature  
Mean Temperature 82 °F -  
Max Temperature 94 °F 90 °F 100 °F (2015)
Min Temperature 71 °F 76 °F 71 °F (2000)
Cooling Degree Days 17    
Growing Degree Days 32 (Base 50)    
Moisture  
Dew Point 72 °F    
Average Humidity 84    
Maximum Humidity 100    
Minimum Humidity 34    
Precipitation  
Precipitation 0.00 in - - ()
Sea Level Pressure  
Sea Level Pressure 30.10 in    
Wind  
Wind Speed 3 mph (SSW)    
Max Wind Speed 13 mph    
Max Gust Speed 17 mph    
Visibility 7 miles    
Events Fog    
Averages and records for this station are not official NWS values.
T = Trace of Precipitation, MM = Missing Value Source: NWS Daily Summary

Daily Weather History Graph

Daily Weather History Graph

Search for Another Location

Airport or City:

Trip Planner

Search our weather history database for the weather conditions in past years. The results will help you decide how hot, cold, wet, or windy it might be!

Date:

Astronomy

Jul. 30, 2013 Rise Set
Actual Time 6:30 AM CDT 8:07 PM CDT
Civil Twilight 6:04 AM CDT 8:33 PM CDT
Nautical Twilight 5:32 AM CDT 9:04 PM CDT
Astronomical Twilight 4:59 AM CDT 9:37 PM CDT
Moon 12:44 AM CDT (7/30) 2:29 PM CDT (7/30)
Length of Visible Light 14h 29m
Length of Day
13h 37m
Last Quarter, 41% of the Moon is Illuminated
Jul 30
Last Quarter
Aug 6
New
Aug 14
First Quarter
Aug 20
Full
Aug 28
Last Quarter

Hourly Weather History & Observations

Time (CDT) Temp. Heat Index Dew Point Humidity Pressure Visibility Wind Dir Wind Speed Gust Speed Precip Events Conditions
12:15 AM 73.2 °F - 72.7 °F 98% 30.12 in 4.0 mi South 3.5 mph - N/A   Clear
12:35 AM 77.5 °F - 75.9 °F 95% 30.12 in 10.0 mi SSW 3.5 mph - N/A   Clear
12:55 AM 75.4 °F - 73.6 °F 94% 30.11 in 7.0 mi Calm Calm - N/A   Clear
1:15 AM 73.8 °F - 73.4 °F 99% 30.10 in 7.0 mi SSW 3.5 mph - N/A   Clear
1:35 AM 77.5 °F - 75.2 °F 92% 30.09 in 10.0 mi SSW 5.8 mph - N/A   Clear
1:55 AM 74.8 °F - 73.0 °F 94% 30.10 in 10.0 mi Calm Calm - N/A   Clear
2:15 AM 74.5 °F - 73.6 °F 97% 30.10 in 7.0 mi Calm Calm - N/A   Clear
2:35 AM 74.5 °F - 74.3 °F 99% 30.10 in 5.0 mi Calm Calm - N/A   Clear
2:55 AM 73.6 °F - 73.4 °F 99% 30.09 in 4.0 mi Calm Calm - N/A   Clear
3:15 AM 73.4 °F - 73.4 °F 100% 30.09 in 5.0 mi Calm Calm - N/A   Clear
3:35 AM 72.9 °F - 72.9 °F 100% 30.09 in 4.0 mi Calm Calm - N/A   Clear
3:55 AM 72.9 °F - 72.9 °F 100% 30.10 in 4.0 mi Calm Calm - N/A   Clear
4:15 AM 72.9 °F - 72.9 °F 100% 30.10 in 4.0 mi Calm Calm - N/A   Clear
4:35 AM 73.0 °F - 73.0 °F 100% 30.10 in 5.0 mi Calm Calm - N/A   Clear
4:55 AM 73.2 °F - 73.2 °F 100% 30.10 in 5.0 mi Calm Calm - N/A   Clear
5:15 AM 72.5 °F - 72.5 °F 100% 30.11 in 1.8 mi Calm Calm - N/A   Mist
5:35 AM 71.6 °F - 71.6 °F 100% 30.11 in 2.0 mi Calm Calm - N/A   Clear
5:55 AM 71.6 °F - 71.6 °F 100% 30.11 in 2.0 mi Calm Calm - N/A   Clear
6:00 AM 71.6 °F - 71.6 °F 100% 30.11 in 6.0 mi Calm Calm - N/A   Clear
6:15 AM 71.6 °F - 71.6 °F 100% 30.11 in 0.5 mi Calm Calm - N/A Fog Fog
6:35 AM 71.8 °F - 71.8 °F 100% 30.12 in 5.0 mi Calm Calm - N/A   Clear
6:55 AM 71.6 °F - 71.6 °F 100% 30.13 in 4.0 mi Calm Calm - N/A   Clear
8:45 AM 78.8 °F - 78.8 °F 100% 30.15 in 7.0 mi Calm Calm - N/A   Clear
9:58 AM 78.8 °F - 78.8 °F 100% 30.15 in 10.0 mi SW 5.8 mph - N/A   Scattered Clouds
10:48 AM 89.6 °F 96.2 °F 71.6 °F 55% 30.15 in 10.0 mi SW 5.8 mph - N/A   Scattered Clouds
11:50 AM 89.6 °F 94.7 °F 69.8 °F 52% 30.15 in 10.0 mi SSW 5.8 mph - N/A   Scattered Clouds
12:50 PM 93.2 °F 97.7 °F 68.0 °F 44% 30.13 in 10.0 mi SSW 8.1 mph - N/A   Scattered Clouds
1:46 PM 91.4 °F 96.8 °F 69.8 °F 49% 30.11 in 10.0 mi SW 5.8 mph - N/A   Scattered Clouds
2:50 PM 93.2 °F 97.7 °F 68.0 °F 44% 30.10 in 10.0 mi SSW 12.7 mph - N/A   Scattered Clouds
3:50 PM 93.2 °F 94.9 °F 64.4 °F 38% 30.09 in 10.0 mi South 12.7 mph 17.3 mph N/A   Partly Cloudy
4:50 PM 93.2 °F 93.3 °F 60.8 °F 34% 30.09 in 10.0 mi South 10.4 mph 17.3 mph N/A   Clear
5:50 PM 91.4 °F 92.1 °F 62.6 °F 38% 30.08 in 10.0 mi South 8.1 mph - N/A   Clear
6:50 PM 89.6 °F 91.1 °F 64.4 °F 43% 30.07 in 10.0 mi SSW 10.4 mph - N/A   Clear
7:50 PM 84.2 °F 88.4 °F 69.8 °F 62% 30.07 in 10.0 mi SSW 8.1 mph - N/A   Clear
8:50 PM 82.4 °F 87.2 °F 71.6 °F 70% 30.07 in 10.0 mi South 6.9 mph - N/A   Clear
9:50 PM 80.6 °F 84.6 °F 71.6 °F 74% 30.08 in 10.0 mi SSW 5.8 mph - N/A   Clear
11:15 PM 74.1 °F - 72.9 °F 96% 30.09 in 10.0 mi Calm Calm - N/A   Clear
11:35 PM 73.8 °F - 73.0 °F 98% 30.09 in 7.0 mi Calm Calm - N/A   Clear
11:55 PM 74.5 °F - 73.4 °F 96% 30.09 in 10.0 mi Calm Calm - N/A   Clear